Location: Melque
(41.0517°N, 4.4694°W)
Time: 21:38:59
(UTC+00:00)

SPOT 1/Viking Rocket - Visible Passes

Search period start: 16 March 2026 00:00
Search period end: 26 March 2026 00:00
Orbit: 773 x 788 km, 98.2° (Epoch: 16 March)

Date Brightness Start Highest point End Pass type
(mag) Time Alt. Az. Time Alt. Az. Time Alt. Az.
16 Mar 6.5 19:34:38 10° SW 19:38:09 18° W 19:41:41 10° NW visible
17 Mar 5.4 19:00:55 10° SSW 19:05:38 36° W 19:10:25 10° NNW visible
19 Mar 6.5 19:37:24 10° SW 19:40:45 17° W 19:44:07 10° NW visible
20 Mar 5.5 19:03:34 10° SSW 19:08:13 34° W 19:12:56 10° NNW visible
22 Mar 6.5 19:40:12 10° SW 19:43:21 16° W 19:46:31 10° NW visible
23 Mar 5.6 19:06:13 10° SSW 19:10:48 32° W 19:15:27 10° NNW visible
24 Mar 7.3 05:41:01 10° ENE 05:42:03 11° E 05:43:05 10° E visible
25 Mar 6.6 19:43:01 10° SW 19:45:57 15° W 19:48:54 10° NW visible
